ティヒー彗星

196P/Tichy (2008)

English version
Home page
Updated on April 4, 2008

---------------------------------------------------------------------

・ プロフィール

符号 196P/2008 C2
検出日 2008年2月3日
検出光度 18.8等
検出者 M. Tichy and J. Ticha (Klet Observatory)

・ 軌道要素

                    Epoch = 2008 Feb. 24.0 TT
     T = 2008 Feb.  7.1544 TT         Peri. =  11.7159
     e = 0.433828                     Node  =  24.3420  2000.0
     q = 2.137870 AU                  Incl. =  19.3785
       a =  3.776006 AU    n = 0.1343244    P =   7.34 years

・ 光度変化

        m1 = 12.5 + 5 logΔ + 15.0 log r

---------------------------------------------------------------------

軌道要素は、IAUC 8917に掲載されたものです。
光度グラフはComet for Windowsで作成したものです。

---------------------------------------------------------------------

Copyright(C) Seiichi Yoshida (comet@aerith.net). All rights reserved.